Location: T�bingen+AIT
(48.5342°N, 9.0700°E)
Time: 13:15:51
(UTC+01:00)

Daily predictions for brighter satellites

Satellite Brightness Start Highest point End
(mag) Time Altitude Azimuth Time Altitude Azimuth Time Altitude Azimuth
Cosmos 1844 4.2 19:06:43 10° S 19:12:00 39° ESE 19:17:22 10° NE
Lacrosse 5 rocket 2.8 19:08:56 10° NW 19:12:25 26° N 19:15:44 10° ENE
Resurs 01 Rocket 1.8 19:08:45 10° SSE 19:13:03 54° ENE 19:17:23 10° N
Cosmos 2298 Rocket 4.3 19:08:31 10° S 19:13:35 47° ESE 19:18:40 10° NNE
Cosmos 1812 Rocket 4.0 19:09:56 10° SSE 19:14:02 38° E 19:18:07 10° NNE
ASTRO F (AKARI) 4.2 19:11:54 10° NNE 19:15:03 88° WNW 19:18:12 10° SSW
Lacrosse 5 3.2 19:12:22 10° SSE 19:15:54 19° ESE 19:19:25 10° E
RESURS DK-1 2.6 19:12:54 10° NNW 19:16:58 52° NE 19:21:01 10° SE
CZ-3B DEB 3.4 19:06:38 10° SSW 19:17:19 44° SE 19:22:27 10° ENE
Abrixas 2.3 19:16:13 10° W 19:19:04 84° SSW 19:21:50 11° E
USA 186 2.5 19:18:57 10° ESE 19:20:41 19° ENE 19:22:24 10° NNE
SeaSat 1 3.2 19:16:20 10° SSE 19:21:11 57° WSW 19:26:04 10° NW
Cosmos 1766 3.9 19:18:33 10° SSE 19:22:02 32° E 19:25:32 10° NNE
HJ-1C 3.5 19:21:40 10° SSE 19:25:03 84° WSW 19:28:30 10° NNW
Meteor 1-4 Rocket 4.3 19:24:12 10° ESE 19:25:42 12° E 19:27:14 10° ENE
Cosmos 2228 3.7 19:24:16 10° SSW 19:28:27 59° WNW 19:32:40 10° N
SL-27 R/B 2.5 19:27:06 10° NNW 19:30:38 65° ENE 19:34:12 10° SSE
COSMOS 2487 4.2 19:30:40 10° N 19:33:10 18° NE 19:34:56 13° E
Meteor 1-22 Rocket 4.4 19:28:04 10° S 19:33:44 57° E 19:39:38 10° NNE
CZ-4B DEB 3.9 19:31:30 12° ESE 19:33:49 25° ENE 19:36:26 10° NNE
Meteor 1-29 4.4 19:31:35 10° NE 19:34:03 18° E 19:36:31 10° SE
Cosmos 2084 Rocket 3.3 19:30:35 10° SW 19:34:37 80° NW 19:38:30 10° NE
USA 215 4.1 19:29:17 10° ENE 19:34:47 28° SE 19:40:14 10° S
Cosmos 2344 3.8 19:36:11 10° SSW 19:43:36 56° ESE 19:52:05 10° NE
Helios 1B rocket 3.0 19:44:37 10° NNE 19:48:28 36° E 19:52:17 10° SSE
Cosmos 482 Debris 3.7 19:46:55 10° WNW 19:48:41 31° N 19:49:15 24° NE
In-Cosmos 22 4.0 19:45:49 10° N 19:51:13 75° ENE 19:56:29 10° SSE
CZ-2D R/B 3.3 19:48:40 10° SSE 19:52:32 83° WSW 19:56:27 10° NNW
Helios 1A 2.9 19:48:37 10° SSE 19:52:44 68° ENE 19:56:55 10° N
Cosmos 405 4.3 19:50:13 10° SSW 19:53:35 43° WNW 19:56:59 10° N
Cosmos-2242 4.3 19:54:54 19° E 19:55:25 20° E 19:58:31 10° NE
Cosmos 1844 Rocket 2.8 19:50:30 10° SSW 19:56:10 80° WNW 20:01:50 10° NNE
Cosmos 1674 3.5 19:53:57 10° N 19:57:19 30° ENE 19:58:44 23° ESE
Cosmos 1805 3.5 19:55:28 10° SSE 19:59:10 44° E 20:02:54 10° NNE
Spot 2 Rocket 4.1 19:55:28 10° S 20:00:30 61° WSW 20:05:36 10° NNW
Cosmos 1934 Rocket 4.0 19:54:25 10° S 20:00:34 88° W 20:06:42 10° N
Resurs 1-3 4.2 19:57:09 10° S 20:01:28 60° WSW 20:05:50 10° NNW
Cosmos 1437 Rocket 3.5 19:57:46 10° SSW 20:01:42 57° WNW 20:05:45 10° N
Cosmos 2150 Rocket 4.1 19:56:59 10° SSW 20:02:08 81° WNW 20:07:20 10° NNE
Cosmos 1833 Rocket 3.1 19:56:50 10° NNW 20:02:16 47° NE 20:05:45 21° ESE
Lacrosse 4 Rocket 1.4 19:58:37 10° SW 20:02:40 77° NW 20:06:45 10° NNE
Cosmos 1340 Rocket 3.9 20:00:17 10° NNE 20:03:42 25° ENE 20:04:34 23° E
Cosmos 2278 Rocket 2.2 19:59:16 10° S 20:04:47 57° ESE 20:10:21 10° NE
H-2A R/B 3.9 20:03:24 13° ENE 20:04:50 15° NE 20:07:37 10° NNE
Cosmos 158 Rocket 4.3 20:01:52 10° NNW 20:06:44 46° ENE 20:09:37 23° ESE
USA 267 3.5 20:05:20 19° E 20:10:07 59° NNE 20:16:31 10° NW
BREEZE-M DEB 4.2 20:07:01 10° WSW 20:11:09 78° SSE 20:12:16 36° E
Cosmos 1470 4.0 20:12:25 24° ENE 20:12:25 24° ENE 20:15:11 10° NNE
SJ-11-01 4.3 20:09:20 15° SSE 20:13:09 65° ENE 20:17:51 10° N
Cosmos 1898 Rocket 4.4 20:10:46 10° SW 20:15:56 52° WNW 20:21:07 10° NNE
Cosmos 2297 4.2 20:11:48 10° S 20:16:53 35° ESE 20:22:02 10° NE
Cosmos 990 Rocket 4.1 20:12:20 10° SSW 20:17:35 79° WNW 20:22:52 10° NNE
Envisat 2.9 20:13:43 13° SSE 20:18:19 78° ENE 20:23:26 10° NNW
Cosmos 1758 3.2 20:17:08 10° S 20:21:05 66° E 20:25:03 10° NNE
Cosmos 1408 Rocket 3.6 20:17:53 10° N 20:22:20 63° ENE 20:24:42 27° SSE
Okean 3 Rocket 4.1 20:19:50 10° NNW 20:24:10 60° W 20:28:29 10° S
Cosmos 1125 Rocket 3.7 20:19:25 10° S 20:24:20 45° ESE 20:29:19 10° NNE
Cosmos 1048 Rocket 3.9 20:19:58 10° NNW 20:25:08 75° ENE 20:27:58 27° SSE
Cosmos 1939 Rocket 2.8 20:25:47 25° SSE 20:28:08 82° ENE 20:32:19 10° NNW
YAOGAN 6 2.9 20:28:27 44° E 20:28:47 45° ENE 20:32:23 10° N
Geosat 4.1 20:24:09 10° NNE 20:29:12 76° WNW 20:34:13 10° SW
Cosmos 2082 Rocket 2.1 20:25:19 10° NNW 20:31:04 79° ENE 20:34:06 29° SE
Cosmos 1953 2.2 20:27:32 10° S 20:31:37 80° E 20:35:42 10° NNE
Cosmos 2100 Rocket 4.1 20:30:41 10° SSE 20:36:49 57° E 20:43:02 10° NNE
Cosmos 1605 Rocket 4.3 20:31:42 10° SSW 20:37:56 69° WNW 20:44:18 10° N
Cosmos 1733 4.0 20:39:08 36° NE 20:39:08 36° NE 20:41:55 10° NNE
SL-14 R/B 4.5 20:36:49 10° N 20:39:22 27° NE 20:39:22 27° NE
Cosmos 1818 3.8 20:35:08 10° NW 20:40:33 67° WSW 20:43:19 29° SSE
Timation 1 Rocket 4.3 20:37:06 10° SSW 20:43:01 64° ESE 20:48:59 10° NE
Tiangong 1 3.8 20:42:42 10° SW 20:43:04 11° SW 20:43:04 11° SW
ERS-1 Rocket 2.9 20:43:32 36° SSE 20:45:39 78° ENE 20:50:43 10° NNW
SPOT 1/Viking Rocket 4.3 20:47:17 34° ENE 20:47:44 34° ENE 20:52:25 10° N
GP-B 3.5 20:45:12 12° S 20:49:20 62° W 20:53:45 10° N
Cosmos 2251 Rocket 4.0 20:44:27 10° NNW 20:49:31 42° ENE 20:50:17 40° E
Resurs 01 Rocket 4.3 20:46:46 10° SW 20:49:52 18° W 20:52:58 10° NW
Cosmos 1356 Rocket 4.2 20:46:55 10° N 20:50:13 37° NE 20:50:13 37° NE
USA 186 4.4 20:50:52 10° WSW 20:51:32 11° W 20:52:11 10° WNW
Lacrosse 5 rocket 1.3 20:48:18 10° NW 20:52:15 61° NNE 20:52:18 61° NE
Cosmos 1802 Rocket 3.9 20:50:58 31° SSE 20:53:52 59° E 20:59:56 10° NNE
Abrixas 4.5 20:51:35 10° W 20:53:06 23° WSW 20:53:06 23° WSW
Cosmos 1269 Rocket 4.4 20:50:55 10° NNW 20:56:09 63° WSW 20:58:42 30° S
SL-08 RB Rocket 4.5 20:56:55 38° ENE 20:56:55 38° ENE 21:00:58 10° N
Lacrosse 5 1.7 20:53:10 10° SW 20:58:15 84° SE 21:00:19 37° ENE
Meteor 1-4 Rocket 3.4 20:58:19 20° SW 21:00:28 46° WNW 21:03:51 10° N
Cosmos 2061 Rocket 3.9 20:56:56 21° S 21:01:24 73° E 21:07:50 10° NNE
SPOT 5 3.1 21:00:55 54° ESE 21:01:47 62° ENE 21:07:04 10° N
Timation 2 Rocket 4.0 20:55:47 10° NNW 21:02:12 76° WSW 21:04:42 38° SSE
ARGOS 3.2 21:02:12 52° E 21:02:51 56° ENE 21:08:07 10° N
Cosmos 1766 Rocket 4.4 20:59:47 10° NNW 21:04:07 49° W 21:06:19 26° SSW
Cosmos 2151 3.8 21:02:24 10° N 21:05:31 38° NE 21:05:31 38° NE
Cosmos 1271 Rocket 3.1 21:07:53 58° NNE 21:07:53 58° NNE 21:11:11 10° NNE
COSMOS 2487 3.5 21:05:29 10° NW 21:08:52 41° WSW 21:08:54 41° WSW
MetOp-A 4.0 21:07:52 56° SSE 21:09:05 84° ENE 21:14:28 10° NNW
Cosmos 1184 Rocket 4.4 21:06:49 10° N 21:08:46 32° N 21:08:46 32° N
USA 245 4.2 21:13:03 59° E 21:13:31 62° ENE 21:19:23 10° N
USA 215 3.1 21:11:49 10° NE 21:18:25 84° SE 21:24:57 10° SW
Cosmos 1867 3.9 21:13:12 10° SSW 21:21:46 26° NE 21:24:06 10° NE
Cosmos 2058 4.1 21:15:01 10° N 21:17:34 33° NNE 21:17:34 33° NNE
BREEZE-M DEB (TANK) 4.2 21:25:04 10° SW 21:29:47 55° SE 21:48:17 10° ENE
CZ-3B DEB 2.3 21:22:27 10° WSW 21:30:21 61° NNW 21:31:10 52° NNE
Cosmos-2242 4.1 21:31:41 36° WSW 21:32:41 42° WNW 21:36:46 10° N
Terra 3.1 21:37:33 31° NNE 21:37:33 31° NNE 21:40:28 10° N
Cosmos 1743 Rocket 4.4 21:31:55 10° NNW 21:36:10 47° W 21:36:11 47° W
Cosmos 372 Rocket 4.3 21:33:30 18° SW 21:37:15 62° WNW 21:42:23 10° NNE
Cosmos 1459 Rocket 4.4 21:32:17 13° SSW 21:37:49 60° WNW 21:43:57 10° N
Cosmos 1500 Rocket 4.3 21:34:55 10° NNW 21:38:28 50° NW 21:38:28 50° NW
Cosmos 2173 Rocket 4.4 21:34:42 16° SSW 21:39:36 59° WNW 21:45:49 10° N
H-2A R/B 3.6 21:41:57 28° N 21:41:57 28° N 21:44:02 10° N
Cosmos 1340 Rocket 4.4 21:36:38 10° NNW 21:40:12 31° W 21:40:13 31° W
Nimbus 7 Rocket 4.4 21:35:34 10° NNE 21:40:38 62° NE 21:40:38 62° NE
Lacrosse 4 Rocket 4.4 21:39:51 10° WNW 21:42:06 14° NW 21:44:22 10° N
Cosmos 1864 Rocket 4.3 21:42:57 79° ESE 21:43:08 80° E 21:49:29 10° N
H-2A R/B 2.3 21:44:02 67° NNE 21:44:02 67° NNE 21:48:45 10° NNW
Cosmos 1833 Rocket 4.0 21:41:04 10° NW 21:46:02 33° WSW 21:47:29 29° SW
Cosmos 2278 Rocket 4.0 21:44:13 10° WSW 21:49:13 30° NW 21:54:14 10° NNE
Meteor 1-11 4.4 21:46:32 10° NNW 21:52:04 65° W 21:52:10 65° WSW
USA 267 3.3 21:52:40 61° SSW 21:53:08 63° SW 21:59:38 10° WNW
Cosmos 494 Rocket 4.5 21:50:40 10° NNW 21:55:05 55° WNW 21:55:05 55° WNW
Cosmos 2082 Rocket 4.3 22:10:41 10° WNW 22:14:27 18° W 22:15:59 17° WSW
Cosmos 1725 Rocket 4.3 22:16:03 60° W 22:16:25 61° WNW 22:22:35 10° N
Lacrosse 5 3.7 22:36:56 10° W 22:39:36 27° WNW 22:39:36 27° WNW
Cosmos 2297 Rocket 4.4 22:54:17 10° N 22:57:34 17° NNE 22:57:34 17° NNE
USA 215 3.9 22:58:08 30° NE 23:01:12 51° NNW 23:07:27 10° W
Cosmos 2369 Rocket 4.2 23:17:03 22° NNE 23:17:03 22° NNE 23:19:01 10° NNE
Terra 4.3 23:16:25 18° NW 23:16:25 18° NW 23:17:59 10° NW
H-2A R/B 4.4 23:24:40 17° WNW 23:24:40 17° WNW 23:26:57 10° NW
Cosmos 2227 Rocket 4.1 23:18:55 10° NNW 23:22:00 23° NNE 23:22:00 23° NNE
